COSMOS 2251 DEB, 35669

Orbit data source: Space-Track

COSMOS 2251 DEB, 35669 is space debris in LEO originally from a launch on Wed, 16 Jun 1993 UTC launched from the Plesetsk Missile And Space Complex (PKMTR). The debris from Iridium 33, an American commercial communications satellite, has been tracked extensively since its accidental collision with the defunct Russian satellite Cosmos 2251 in 2009. This event, occurring at high speed in low Earth orbit (LEO), generated thousands of pieces of space debris, significantly increasing the risk of further collisions. The Iridium 33 debris cloud has impacted space traffic management and orbital debris mitigation strategies, making it a subject of ongoing study in space situational awareness.

Loading next visibility...
Identifier
35669, 1993-036APL
Orbit
LEO
Country
Flag of CISCIS
Related business
Manufacturer
Unknown
Mission
Spacecraft
Bus & Motor
Unknown
Mass
Unknown
Launch date (UTC)
1993-06-16 (33 years ago)
Launch vehicle
Unknown
Launch site
Plesetsk Missile And Space Complex (PKMTR)
Object type
Payload
Rocket body
Debris
Shape & HBR
Unknown shape, 0.1 m
Radar Cross Section
Small (<0.1 m²)

Expand to show TLE details & history
Last TLE update: 2 days ago

TLE from 2 days ago
0 COSMOS 2251 DEB
1 35669U 93036APL 26060.23253405  .00000698  00000-0  61928-3 0  9990
2 35669  73.8614  31.3106 0385200 129.8122 233.7572 13.57389970618542
Epoch: 2026-03-01T05:34Z
TLE epoch observation values (Epoch: 2026-03-01T05:34:50.941Z)
Latitude
-0.00005°
Longitude
148.55508°
Altitude
1,223.714 km
Speed
7.156 km/s
True Right ascension
02h 05m 14s
True Declination
0° 00' 00"
Sunlit
Object was in daylight at epoch
Visualization orbit readout
Latitude
Unknown
Longitude
Unknown
Altitude
Unknown
Speed
Unknown
Apparent Right ascension
Unknown
Apparent Declination
Unknown
Sunlit
N/A
Visualization observer readout
Local Sidereal Time
14:36:46
Azimuth
Unknown
Elevation
Unknown
Doppler factor
Unknown
Orbital elements
Apogee altitude
1,328.773 km
Perigee altitude
757.055 km
Semi-major axis
7,421.051 km
Eccentricity
0.03852
Inclination
73.8614°
RAAN
31.3106°
Arg. of periapsis
129.8122°
True anomaly
230.29791°
Mean anomaly
233.7572°
Eccentric anomaly
232.01762°
Mean motion
3.39504 °/min
Orbital period
106.04 mins
BSTAR
0.00061928
Loading maneuver chart data...
Computing Atmospheric mass density...

Documentation

Showing up to 5 results
|